Showing default

GEESAT 1-09, 52793

Orbit data source: Space-Track

GEESAT 1-09, 52793 is a payload satellite owned by GeeSpace (CN) in LEO that was launched on Thu, 02 Jun 2022 UTC via a CHANG ZHENG 2C launch vehicle from the Xichang Space Center, China (XSC). Payload-class satellites include a variety of spacecraft equipped with specific instruments for various scientific and technological missions. These include communications satellites like Starlink; space stations such as the ISS; scientific satellites like the Hubble; Earth observation satellites from companies like Planet Labs, Umbra, and HawkEye 360; GPS; miniature CubeSats for education and research; and military/defense satellites.

Loading next visibility...
Identifier
52793, 2022-058J
Orbit
LEO
Country
Flag of CNCN / PRC
Related business
Manufacturer
GWCG
Mission
Operational Commercial Navigation
Bus & Motor
GPS100, Unknown motor
Mass
130 kg wet, 130 kg dry
Launch date (UTC)
2022-06-02 (4 years ago)
Launch vehicle
CHANG ZHENG 2C
Launch site
Xichang Space Center, China (XSC)
Object type
Payload
Rocket body
Debris
Shape & HBR
Box + 2 Pan, 1.0 m
Radar Cross Section
0.833 m², Medium (>0.1 m² and < 1m²)

Expand to show TLE details & history
Last TLE update: 16 hours ago

TLE from 16 hours ago
0 GEESAT 1-09
1 52793U 22058J   25348.93947693  .00003819  00000-0  33600-3 0  9991
2 52793  49.9984 337.2689 0006653 161.5757 198.5429 14.98586505192596
Epoch: 2025-12-14T22:32Z
TLE epoch observation values (Epoch: 2025-12-14T22:32:50.806Z)
Latitude
-0.00008°
Longitude
-84.78806°
Altitude
576.194 km
Speed
7.572 km/s
True Right ascension
22h 29m 04s
True Declination
0° 00' 00"
Sunlit
Object was in daylight at epoch
Visualization orbit readout
Latitude
Unknown
Longitude
Unknown
Altitude
Unknown
Speed
Unknown
Apparent Right ascension
Unknown
Apparent Declination
Unknown
Sunlit
N/A
Visualization observer readout
Local Sidereal Time
13:22:53
Azimuth
Unknown
Elevation
Unknown
Doppler factor
Unknown
Orbital elements
Apogee altitude
576.65 km
Perigee altitude
567.402 km
Semi-major axis
6,950.163 km
Eccentricity
0.00067
Inclination
49.9984°
RAAN
337.2689°
Arg. of periapsis
161.5757°
True anomaly
198.51867°
Mean anomaly
198.5429°
Eccentric anomaly
198.53079°
Mean motion
3.74585 °/min
Orbital period
96.11 mins
BSTAR
0.000336
Loading maneuver chart data...
Computing Atmospheric mass density...
Loading historical data...
Loading historical data...
Loading historical data...
Loading historical data...
Loading historical data...
Loading historical data...
Loading historical data...

Documentation

Showing up to 5 results
|